Location: Caltech
(34.1382°N, 118.1253°W)
Time: 14:40:06
(UTC-07:00)

COSMOS 2428 - Visible Passes

Search period start: 29 April 2016 00:00
Search period end: 09 May 2016 00:00
Orbit: 846 x 856 km, 70.9° (Epoch: 29 April)

Date Brightness Start Highest point End Pass type
(mag) Time Alt. Az. Time Alt. Az. Time Alt. Az.
29 Apr 4.9 01:51:22 18° NNW 01:51:22 18° NNW 01:53:31 10° N visible
29 Apr 5.2 23:57:08 14° NE 23:57:08 14° NE 23:57:51 10° NE visible
30 Apr 4.9 01:39:06 18° NNW 01:39:06 18° NNW 01:41:18 10° N visible
30 Apr 5.1 23:44:50 14° NE 23:44:50 14° NE 23:45:38 10° NE visible
01 May 4.9 01:26:48 18° NNW 01:26:48 18° NNW 01:29:05 10° N visible
01 May 5.0 23:32:29 15° NE 23:32:29 15° NE 23:33:26 10° NE visible
02 May 4.9 01:14:28 19° NNW 01:14:28 19° NNW 01:16:52 10° N visible
02 May 4.9 23:20:05 16° NE 23:20:05 16° NE 23:21:12 10° NE visible
03 May 4.9 01:02:04 19° NNW 01:02:04 19° NNW 01:04:39 10° N visible
03 May 4.8 23:07:38 17° NE 23:07:38 17° NE 23:08:59 10° NE visible
04 May 4.9 00:49:36 20° NW 00:49:36 20° NW 00:52:26 10° N visible
04 May 4.6 22:55:07 19° NE 22:55:07 19° NE 22:56:47 10° NE visible
05 May 4.8 00:37:04 21° NW 00:37:04 21° NW 00:40:13 10° N visible
05 May 4.4 22:42:30 22° NE 22:42:30 22° NE 22:44:34 10° NE visible
06 May 4.7 00:24:27 22° NW 00:24:27 22° NW 00:28:00 10° N visible
06 May 4.2 22:29:48 25° NE 22:29:48 25° NE 22:32:20 10° NE visible
07 May 4.7 00:11:44 22° NW 00:11:44 22° NW 00:15:47 10° N visible
07 May 3.8 22:16:58 30° NE 22:16:58 30° NE 22:20:07 10° NE visible
07 May 4.6 23:58:54 23° WNW 23:59:07 23° WNW 00:03:34 10° N visible
08 May 3.5 22:03:58 37° ENE 22:03:58 37° ENE 22:07:54 10° NE visible
08 May 4.6 23:45:54 22° WNW 23:46:54 23° WNW 23:51:21 10° N visible
